Location: Unspecified
(36.5600°N, 136.6600°E)
Time: 02:59:27
(UTC+09:00)

BlueWalker 3 - Pass Details

Date: 19 June 2024
Orbit: 480 x 491 km, 53.2° (Epoch: 23 July)

Event Time Altitude Azimuth Distance (km) Brightness Sun altitude
Rises 02:14:50 0° 326° (NNW) 2,537 5.8 -21.5°
Reaches altitude 10° 02:18:10 10° 358° (N) 1,657 5.3 -21.1°
Maximum altitude 02:19:45 12° 23° (NNE) 1,522 5.4 -20.9°
Drops below altitude 10° 02:21:20 10° 49° (NE) 1,656 5.7 -20.8°
Sets 02:24:40 0° 80° (E) 2,536 6.2 -20.4°
